Regional Weather Roundup
Issued by NWS

Home | Current Version | Previous Version | Graphics & Text | Print | Product List | Glossary On
Versions: 1 2 3 4 5 6 7 8 9 10 11 12 13 14 15 16 17 18 19 20 21 22 23 24 25 26 27 28 29 30 31 32 33 34 35 36 37 38 39 40 41 42 43 44 45 46 47 48 49 50
000
ASUS45 KPSR 040210
RWRAZ

ARIZONA HOURLY REGIONAL WEATHER ROUNDUP
NATIONAL WEATHER SERVICE PHOENIX AZ
700 PM MST MON AUG 03 2015

NOTE: FAIR INDICATES FEW OR NO CLOUDS BELOW 12,000 FEET WITH NO
SIGNIFICANT WEATHER AND/OR OBSTRUCTIONS TO VISIBILITY.

AZZ001>003-036-040300-
NORTHWEST ARIZONA

CITY           SKY/WX    TMP DP  RH WIND       PRES   REMARKS
BULLHEAD CITY  MOCLDY   108  37   9 S10       29.68S HX 101
KINGMAN        PTCLDY    93  32  11 S13       29.94R
$$

AZZ004>008-015-016-018-040300-
NORTH CENTRAL ARIZONA

CITY           SKY/WX    TMP DP  RH WIND       PRES   REMARKS
GRAND CANYON   PTCLDY    80  38  22 W9        30.19R
PRESCOTT       PTCLDY    85  43  22 W12       30.08R
FLAGSTAFF      CLEAR     76  41  28 SW8       30.24R
PAYSON         CLEAR     86  43  22 W7        30.10R
PAGE           PTCLDY    94  37  13 W5        29.94R
$$

AZZ009>014-017-040300-
NORTHEAST ARIZONA

CITY           SKY/WX    TMP DP  RH WIND       PRES   REMARKS
WINSLOW        CLEAR     90  40  17 SW10      30.04R
SAINT JOHNS    CLEAR     80  42  25 W7        30.11R
$$

AZZ023-040300-
GREATER PHOENIX AREA

CITY           SKY/WX    TMP DP  RH WIND       PRES   REMARKS
PHOENIX        PTCLDY   108  42  10 W14       29.73R HX 102
BUCKEYE        CLEAR    104  46  14 S7        29.74R HX 100
GLENDALE       PTCLDY   108  45  12 S8        29.74S HX 103
LUKE AFB       CLEAR    105  47  14 SW10      29.72R HX 101
DEER VALLEY    CLEAR    103  45  14 SW12      29.76R
SCOTTSDALE     CLEAR    105  41  11 SW8       29.78R HX 100
MESA-FALCON    PTCLDY   106  41  11 W12       29.76R HX 100
MESA-GATEWAY   CLEAR    104  45  13 NW6       29.78  HX 100
$$

AZZ027-028-040300-
SOUTHWEST MARICOPA COUNTY AND PINAL COUNTY

CITY           SKY/WX    TMP DP  RH WIND       PRES   REMARKS
CASA GRANDE    CLEAR    102  48  16 N6        29.77R
GILA BEND      PTCLDY   106  50  15 SW9       29.71S HX 103
$$

AZZ503-504-507>509-040300-
SOUTHEAST ARIZONA

CITY           SKY/WX    TMP DP  RH WIND       PRES   REMARKS
TUCSON         CLEAR    100  46  16 N7        29.89R
DAVIS-MONTHAN  CLEAR     99  46  16 NW9       29.87R
RYAN FIELD     CLEAR    100  48  17 NW9       29.87R
NOGALES        PTCLDY    86  60  41 SE6       30.02R
SIERRA VISTA   CLOUDY    86  53  32 VRB2      30.08R
DOUGLAS        CLOUDY    82  60  47 S16       30.03R
SAFFORD        PTCLDY    98  42  14 W15       29.87R
$$

AZZ020-021-025-026-031-040300-
SOUTHWEST ARIZONA

CITY           SKY/WX    TMP DP  RH WIND       PRES   REMARKS
YUMA           PTCLDY   105  47  14 SW12      29.68R HX 101
$$

CAZ031-033-041-043-047-048-061-040300-
SOUTHERN CALIFORNIA

CITY           SKY/WX    TMP DP  RH WIND       PRES   REMARKS
DOWNTOWN L.A.  CLEAR     75  59  57 VRB3      29.85S
L.A. AIRPORT   PTCLDY    72  62  71 W17       29.86F
SAN DIEGO      PTCLDY    73  64  73 W10       29.88R
BURBANK        CLEAR     78  60  53 S8        29.85S
ONTARIO        PTCLDY    84  62  47 W13       29.86R
RIVERSIDE      PTCLDY    83  61  47 W13G18    29.85R
PALM SPRINGS   CLEAR    105  48  14 NW17G26   29.70S HX 101
EL CENTRO NAS  PTCLDY   107  49  14 S14       29.66R HX 104
IMPERIAL       CLEAR    108  43  11 SE16      29.64R HX 103
BLYTHE         PTCLDY   109  40   9 SW10      29.67R HX 103
NEEDLES        MOCLDY   108  36   8 S12       29.70S HX 101
$$

NVZ020-UTZ003-040300-
SOUTHERN NEVADA-UTAH

CITY           SKY/WX    TMP DP  RH WIND       PRES   REMARKS
LAS VEGAS      PTCLDY   102  26   7 SW13G22   29.74S
SALT LAKE CITY MOCLDY    69  57  65 SE6       30.07F
$$

NMZ009-TXZ055-040300-
NEW MEXICO-WEST TEXAS

CITY           SKY/WX    TMP DP  RH WIND       PRES   REMARKS
ALBUQUERQUE    PTCLDY    86  41  20 NW12      30.08S
EL PASO        MOCLDY    89  59  36 CALM      29.98R
$$


........................KEY........................
SKY/WX - SKY CONDITION/WEATHER
TMP    - TEMPERATURE IN FAHRENHEIT
DP     - DEW POINT IN FAHRENHEIT
RH     - RELATIVE HUMIDITY IN PERCENT
WIND   - DIRECTION AND SPEED IN MILES PER HOUR (MPH)
VRB    - VARIABLE WIND DIRECTION
PRES   - MEAN SEA LEVEL PRESSURE IN INCHES OF MERCURY
         F - FALLING PRESSURE   R - RISING PRESSURE
         S - STEADY PRESSURE
VSB    - VISIBILITY IN MILES
HX     - HEAT INDEX IN FAHRENHEIT
WCI    - WIND CHILL INDEX IN FAHRENHEIT
TC     - TEMPERATURE IN CELSIUS WHICH IS ALSO KNOWN AS
         TEMPERATURE IN CENTIGRADE
AFB    - AIR FORCE BASE
         LUKE AFB IS LUKE AIR FORCE BASE
         DAVIS-MONTHAN IS DAVIS-MONTHAN AIR FORCE BASE
NAS    - NAVAL AIR STATION
         EL CENTRO NAS IS EL CENTRO NAVAL AIR STATION
N/A    - NOT AVAILABLE



USA.gov is the U.S. government's official web portal to all federal, state and local government web resources and services.